Location: Gälforsberget
(66.6500°N, 22.4167°E)
Time: 14:50:44
(UTC+00:00)

Cosmos 2292 Rocket - Pass Details

Date: 11 April 2026
Orbit: 366 x 1220 km, 83.0° (Epoch: 16 May)

Event Time Altitude Azimuth Distance (km) Brightness Sun altitude
Rises 18:56:26 0° 338° (NNW) 3,945 8.8 -5.5°
Reaches altitude 10° 18:59:20 10° 342° (NNW) 2,880 7.9 -5.7°
Maximum altitude 19:05:56 64° 64° (ENE) 990 4.5 -6.2°
Drops below altitude 10° 19:11:08 10° 146° (SE) 2,289 5.8 -6.6°
Enters shadow 19:11:44 - 147° (SSE) 2,509 6.1 -6.7°
